Regional Weather Roundup
Issued by NWS

Home | Current Version | Previous Version | Graphics & Text | Print | Product List | Glossary On
Versions: 1 2 3 4 5 6 7 8 9 10 11 12 13 14 15 16 17 18 19 20 21 22 23 24 25 26 27 28 29 30 31 32 33 34 35 36 37 38 39 40 41 42 43 44 45 46 47 48 49 50
915
ASUS44 KFWD 261303
RWRTX
NORTH TEXAS HOURLY WEATHER ROUNDUP
NATIONAL WEATHER SERVICE FORT WORTH TX
800 AM CDT THU APR 26 2018

NOTE: "FAIR" INDICATES FEW OR NO CLOUDS BELOW 12,000 FEET WITH NO
SIGNIFICANT WEATHER AND/OR OBSTRUCTIONS TO VISIBILITY.

TXZ118-119-261400-
DALLAS/FORT WORTH METROPLEX

CITY           SKY/WX    TMP DP  RH WIND       PRES   REMARKS
DFW AIRPORT    FAIR      50  44  80 NW9       30.05R
DALLAS LOVE    FAIR      50  44  80 NW3       30.06R
FTW MEACHAM    FAIR      50  46  86 W6        30.06R
FTW-ALLIANCE   FAIR      48  45  89 W5        30.06R
FTW-NAS-JRB    FAIR      49  44  83 CALM      30.07R
FTW-SPINKS     SUNNY     48  45  87 W8        30.08R
ARLINGTON      FAIR      47  46  97 W5        30.07R
GRAND PRAIRIE  SUNNY     48  45  87 CALM      30.08R
ADDISON        SUNNY     48  43  81 NW6       30.06R
MESQUITE       SUNNY     45  45 100 CALM      30.07R
LANCASTER      FAIR      47  45  95 CALM      30.07R
$$

TXZ091>094-102>105-117-120-121-131>134-261400-
NORTH CENTRAL TEXAS

CITY           SKY/WX    TMP DP  RH WIND       PRES   REMARKS
SHRMAN/DENISON FAIR      48  45  88 NW3       30.06R
GAINESVILLE    FAIR      45  42  90 CALM      30.08R
BOWIE          FAIR      45  44  95 W3        30.06R
BRIDGEPORT     FAIR      45  45 100 CALM      30.08S
DECATUR        FAIR      45  43  93 CALM      30.06R
DENTON         FAIR      44  43  96 CALM      30.06R
MCKINNEY       FAIR      47  44  90 NW6       30.06R
BONHAM         FAIR      47  43  85 N5        30.04R
GREENVILLE     FAIR      50  46  87 W5        30.06R
ROCKWALL       FAIR      49  46  89 MISG      30.07R
TERRELL        FAIR      48  44  86 W3        30.07R
WAXAHACHIE     FAIR      48  48  99 W6        30.07R
CLEBURNE       FAIR      45  45 100 W8        30.08R
GRANBURY       FOG       44  43  95 CALM      30.09R VSB 1/4
$$

TXZ083>090-098>101-113>116-127>130-139>142-154-155-261400-
WESTERN NORTH TEXAS

CITY           SKY/WX    TMP DP  RH WIND       PRES   REMARKS
WICHITA FALLS  FAIR      45  41  86 NE3       30.04S
WF-KICKAPOO    FAIR      46  42  87 CALM      30.08R
VERNON         FAIR      44  43  95 CALM      30.04R
ABILENE        FAIR      42  41  96 S5        30.06R WCI  39
GRAHAM           N/A     41  32  69 CALM      30.05S
BRECKENRIDGE   FAIR      44  44  99 CALM      30.06S
CISCO          FAIR      46  45  93 SW6       30.06S
EASTLAND       FAIR      39  39  99 CALM      30.06S
RANGER         FAIR      47  45  91 W5        30.06S
MINERAL WELLS  FAIR      44  42  93 CALM      30.05S
STEPHENVILLE   FAIR      43  41  93 CALM      30.09S
COMANCHE       FAIR      43  43 100 CALM      30.07S
BROWNWOOD      FOG       39  39 100 CALM      30.09S VSB<1/4
COLEMAN        FAIR      43  42  97 CALM      30.07S
BRADY          FAIR      41  41 100 W7        30.09R WCI  36
$$

TXZ143>147-156>162-174-175-261400-
CENTRAL TEXAS

CITY           SKY/WX    TMP DP  RH WIND       PRES   REMARKS
WACO           FAIR      47  46  97 NW5       30.08R
WACO-TSTC      SUNNY     46  46 100 W5        30.09R
WACO-MCGREGOR  FAIR      48  45  89 NW5       30.09R
HILLSBORO      FOG       44  44 100 CALM      30.07R VSB<1/4
CORSICANA      FAIR      47  46  97 W6        30.08R
MEXIA          FAIR      46  46  97 W9        30.06R
HEARNE         FAIR      46  46 100 CALM      30.09R
CAMERON        FAIR      48  47  94 W6        30.09R
TEMPLE         FAIR      47  46  97 NW6       30.09R
KILLEEN        SUNNY     50  45  81 NW2       30.08R
KILLEEN-SKYLRK FAIR      49  46  90 NW5       30.08R
FORT HOOD      FAIR      46  46  99 NW6       30.04R
GATESVILLE     FAIR      45  43  93 CALM      30.10R
HAMILTON       FAIR      46  46 100 W3        30.09R
LAMPASAS       FAIR      46  44  95 CALM      30.07R
$$

TXZ095>097-106>112-122>126-135>138-148>153-164>167-261400-
EAST TEXAS

CITY           SKY/WX    TMP DP  RH WIND       PRES   REMARKS
PARIS          FAIR      48  44  86 NW12      30.02R
SULPHUR SPRNGS FAIR      50  46  86 NW7       30.06R
MOUNT PLEASANT FAIR      48  45  90 W8        30.03S
GILMER         FAIR      47  45  91 W6        30.02S
MINEOLA        FAIR      48  45  87 NW6       30.04R
TYLER          FAIR      49  46  90 W7        30.03R
LONGVIEW       FAIR      50  48  93 NW8       30.02R
MARSHALL       FAIR      48  45  90 W5        30.03R
ATHENS         FAIR      48  48 100 N3        30.04R
PALESTINE      FOG       48  48 100 CALM      30.07R VSB 1/4
JACKSONVILLE   CLOUDY    47  47 100 W7        30.05R FOG
HENDERSON      FAIR      49  46  88 NW3       30.04R
CENTER         FAIR      49  45  87 MISG      30.03R
NACOGDOCHES      N/A     51  48  89 W5        30.04R
LUFKIN         FAIR      51  48  89 W7        30.04R
$$

SUPPLEMENTAL OBSERVATIONS (NWS FORT WORTH AREA)

CITY           SKY/WX    TMP DP  RH WIND       PRES   REMARKS
$$

SUPPLEMENTAL OBSERVATIONS (NWS NORMAN AREA)

CITY           SKY/WX    TMP DP  RH WIND       PRES   REMARKS
GOODLETT         N/A     42  39  87 SW6       30.02S WCI  39
ODELL            N/A     44  43  97 E2        30.05R
CROWELL          N/A     45  42  91 SW5       30.05R
KNOX CITY        N/A     42  39  90 S5        30.06R WCI  39
SEYMOUR          N/A     42  42  98 SW2       30.05S
$$

SUPPLEMENTAL OBSERVATIONS (NWS SAN ANGELO AREA)

CITY           SKY/WX    TMP DP  RH WIND       PRES   REMARKS
WEINERT          N/A     43  40  89 S5        30.06R
HASKELL          N/A     43  42  97 S6        30.05S WCI  39
THROCKMORTON     N/A     46  44  93 SW6       30.06S
STAMFORD         N/A     41  40  99 S5        30.07S WCI  38
CLYDE            N/A     46  44  91 SW5       30.07S
$$

SUPPLEMENTAL OBSERVATIONS (NWS SHREVEPORT AREA)

CITY           SKY/WX    TMP DP  RH WIND       PRES   REMARKS
$$

SUPPLEMENTAL OBSERVATIONS ARE A COLLECTION OF AUTOMATED INSTRUMENTS
THAT ARE MAINTAINED BY A VARIETY OF FEDERAL AND STATE AGENCIES.
CERTAIN ELEMENTS...SUCH AS HUMIDITY VALUES AND SUSTAINED WIND
SPEEDS...MAY BE APPROXIMATED.





USA.gov is the U.S. government's official web portal to all federal, state and local government web resources and services.